TimeCST,TemperatureF,Dew PointF,Humidity,Sea Level PressureIn,VisibilityMPH,Wind Direction,Wind SpeedMPH,Gust SpeedMPH,PrecipitationIn,Events,Conditions,WindDirDegrees,DateUTC
12:53 AM,17.6,5.0,58,30.39,10.0,NW,9.2,-,N/A,,Clear,320,2013-02-01 06:53:00
1:53 AM,16.0,6.1,65,30.42,10.0,NNW,13.8,19.6,N/A,,Clear,330,2013-02-01 07:53:00
2:53 AM,14.0,3.9,64,30.43,10.0,NW,5.8,-,N/A,,Clear,320,2013-02-01 08:53:00
3:53 AM,12.9,1.9,62,30.44,10.0,North,4.6,-,N/A,,Clear,360,2013-02-01 09:53:00
4:53 AM,12.0,1.9,64,30.45,10.0,Calm,Calm,-,N/A,,Clear,0,2013-02-01 10:53:00
5:53 AM,10.9,3.0,70,30.47,10.0,Calm,Calm,-,N/A,,Clear,0,2013-02-01 11:53:00
6:53 AM,10.9,3.9,73,30.50,10.0,Calm,Calm,-,N/A,,Clear,0,2013-02-01 12:53:00
7:53 AM,12.2,5.0,73,30.44,10.0,Calm,Calm,-,N/A,,Clear,0,2013-02-01 13:53:00
8:53 AM,16.0,5.0,62,30.51,10.0,SSE,4.6,-,N/A,,Clear,150,2013-02-01 14:53:00
9:53 AM,19.9,3.0,48,30.50,10.0,SE,4.6,-,N/A,,Clear,130,2013-02-01 15:53:00
10:53 AM,23.0,1.0,39,30.49,10.0,ESE,5.8,-,N/A,,Clear,120,2013-02-01 16:53:00
11:53 AM,26.6,1.4,34,30.41,10.0,ESE,9.2,-,N/A,,Clear,120,2013-02-01 17:53:00
12:53 PM,30.0,5.0,35,30.42,10.0,SE,9.2,-,N/A,,Clear,140,2013-02-01 18:53:00
1:53 PM,35.1,5.0,28,30.38,10.0,SE,8.1,-,N/A,,Clear,140,2013-02-01 19:53:00
2:53 PM,37.9,7.0,28,30.34,10.0,SE,11.5,-,N/A,,Clear,130,2013-02-01 20:53:00
3:53 PM,37.4,8.6,30,30.27,10.0,ESE,10.4,-,N/A,,Clear,120,2013-02-01 21:53:00
4:53 PM,37.9,10.9,33,30.29,10.0,ESE,10.4,-,N/A,,Clear,120,2013-02-01 22:53:00
5:53 PM,35.1,12.0,39,30.26,10.0,SE,11.5,-,N/A,,Clear,130,2013-02-01 23:53:00
6:53 PM,34.0,12.0,40,30.26,10.0,SSE,16.1,-,N/A,,Clear,150,2013-02-02 00:53:00
7:53 PM,32.0,12.0,44,30.25,10.0,SSE,13.8,-,N/A,,Clear,150,2013-02-02 01:53:00
8:53 PM,30.9,12.0,46,30.22,10.0,SE,17.3,25.3,N/A,,Clear,140,2013-02-02 02:53:00
9:53 PM,30.9,10.9,43,30.22,10.0,SE,9.2,-,N/A,,Clear,130,2013-02-02 03:53:00
10:53 PM,28.0,10.9,49,30.26,10.0,Calm,Calm,-,N/A,,Clear,0,2013-02-02 04:53:00
11:53 PM,28.9,12.9,51,30.25,10.0,SSE,4.6,-,N/A,,Clear,160,2013-02-02 05:53:00